Location: Stara Lesna
(49.1528°N, 20.2911°E)
Time: 18:57:53
(UTC+02:00)

PAYLOAD A - Pass Details

Date: 21 September 2019
Orbit: 691 x 833 km, 98.3° (Epoch: 15 October)

Event Time Altitude Azimuth Distance (km) Brightness Sun altitude
Rises 05:41:54 0° 9° (N) 3,132 7.4 -7.5°
Reaches altitude 10° 05:44:16 10° 4° (N) 2,192 6.6 -7.2°
Maximum altitude 05:48:49 47° 292° (WNW) 929 4.1 -6.4°
Drops below altitude 10° 05:53:17 10° 219° (SW) 2,143 5.9 -5.7°
Sets 05:55:34 0° 213° (SSW) 3,054 6.7 -5.3°
